User: anonymous   Login
Location: Unspecified
(0.0000°N, 0.0000°E)
Time: 23:07:26
(UTC+00:00)
Language:

Vanguard 1 Rocket - Orbit

View from above orbital plane
View from above orbital plane
View from above satellite
View from above satellite

Ground track
Ground track

The orbit data is extracted from the following two-line orbital elements,

1    16U 58002A   19322.49716773 -.00000108  00000-0 -11913-3 0  9992
2    16  34.2662  46.6173 2027449  64.1174 315.4150 10.48733078436575
Epoch (UTC): 18 November 2019 11:55:55
Eccentricity: 0.2027449
inclination: 34.2662°
perigee height: 651 km
apogee height: 4226 km
right ascension of ascending node: 46.6173°
argument of perigee: 64.1174°
revolutions per day: 10.48733078
mean anomaly at epoch: 315.4150°
orbit number at epoch: 43657

The dashed part of the orbit path shows where the satellite is in the earth's shadow,  

DLR